Time,TemperatureF,DewpointF,PressureIn,WindDirection,WindDirectionDegrees,WindSpeedMPH,WindSpeedGustMPH,Humidity,HourlyPrecipIn,Conditions,Clouds,dailyrainin,SoftwareType,DateUTC
2013-02-17 00:00:00,17.1,5.9,30.15,WSW,248,3.5,3.5,61,0.00,SKC,,0.00,WeatherDisplay:10.37,2013-02-17 06:00:00,
2013-02-17 00:05:00,16.7,5.6,30.15,WSW,248,3.5,3.5,61,0.00,SKC,,0.00,WeatherDisplay:10.37,2013-02-17 06:05:00,
2013-02-17 00:10:00,16.7,5.6,30.15,WSW,248,3.5,3.5,61,0.00,SKC,,0.00,WeatherDisplay:10.37,2013-02-17 06:10:00,
2013-02-17 00:15:00,16.3,5.6,30.15,West,270,2.3,2.3,62,0.00,SKC,,0.00,WeatherDisplay:10.37,2013-02-17 06:15:00,
2013-02-17 00:20:00,16.2,5.4,30.15,West,270,1.2,2.1,62,0.00,SKC,,0.00,WeatherDisplay:10.37,2013-02-17 06:20:00,
2013-02-17 00:25:00,16.2,5.4,30.15,WSW,248,3.5,3.5,62,0.00,SKC,,0.00,WeatherDisplay:10.37,2013-02-17 06:25:00,
2013-02-17 00:30:00,16.0,5.2,30.15,WNW,292,4.6,4.6,62,0.00,SKC,,0.00,WeatherDisplay:10.37,2013-02-17 06:30:00,
2013-02-17 00:35:00,16.0,5.2,30.15,West,270,3.8,3.8,62,0.00,SKC,,0.00,WeatherDisplay:10.37,2013-02-17 06:35:00,
2013-02-17 00:40:00,15.8,5.1,30.15,West,270,3.0,3.0,62,0.00,SKC,,0.00,WeatherDisplay:10.37,2013-02-17 06:40:00,
2013-02-17 00:45:00,16.0,5.2,30.15,SW,225,1.2,1.5,62,0.00,SKC,,0.00,WeatherDisplay:10.37,2013-02-17 06:45:00,
2013-02-17 00:50:00,15.6,4.9,30.15,WSW,248,1.2,1.4,62,0.00,SKC,,0.00,WeatherDisplay:10.37,2013-02-17 06:50:00,
2013-02-17 00:55:00,15.4,5.1,30.15,WSW,248,2.3,2.3,63,0.00,SKC,,0.00,WeatherDisplay:10.37,2013-02-17 06:55:00,
2013-02-17 01:00:00,15.3,4.6,30.15,SW,225,2.3,2.3,62,0.00,SKC,,0.00,WeatherDisplay:10.37,2013-02-17 07:00:00,
2013-02-17 01:05:00,15.3,4.9,30.15,SW,225,2.3,2.3,63,0.00,SKC,,0.00,WeatherDisplay:10.37,2013-02-17 07:05:00,
2013-02-17 01:10:00,15.3,4.9,30.15,WSW,248,2.3,2.3,63,0.00,SKC,,0.00,WeatherDisplay:10.37,2013-02-17 07:10:00,
2013-02-17 01:15:00,15.3,4.9,30.15,West,270,2.3,2.3,63,0.00,SKC,,0.00,WeatherDisplay:10.37,2013-02-17 07:15:00,
2013-02-17 01:20:00,14.9,4.6,30.15,WSW,248,1.4,1.4,63,0.00,SKC,,0.00,WeatherDisplay:10.37,2013-02-17 07:20:00,
2013-02-17 01:25:00,14.9,4.6,30.15,East,90,2.3,2.3,63,0.00,SKC,,0.00,WeatherDisplay:10.37,2013-02-17 07:25:00,
2013-02-17 01:30:00,14.7,4.4,30.15,SW,225,3.5,3.5,63,0.00,SKC,,0.00,WeatherDisplay:10.37,2013-02-17 07:30:00,
2013-02-17 01:35:00,14.7,4.7,30.15,West,270,2.3,2.3,64,0.00,SKC,,0.00,WeatherDisplay:10.37,2013-02-17 07:35:00,
2013-02-17 01:40:00,14.7,4.7,30.15,West,270,2.3,2.3,64,0.00,SKC,,0.00,WeatherDisplay:10.37,2013-02-17 07:40:00,
2013-02-17 01:45:00,14.7,4.7,30.15,WSW,248,2.3,2.3,64,0.00,SKC,,0.00,WeatherDisplay:10.37,2013-02-17 07:45:00,
2013-02-17 01:50:00,14.5,4.6,30.15,WSW,248,3.5,3.5,64,0.00,SKC,,0.00,WeatherDisplay:10.37,2013-02-17 07:50:00,
2013-02-17 01:55:00,14.5,4.6,30.15,SSW,202,2.3,2.3,64,0.00,SKC,,0.00,WeatherDisplay:10.37,2013-02-17 07:55:00,
2013-02-17 02:00:00,14.5,4.6,30.15,SW,220,2.0,2.0,64,0.00,SKC,,0.00,WeatherDisplay:10.37,2013-02-17 08:00:00,
2013-02-17 02:05:00,14.5,4.6,30.14,WSW,248,2.3,2.3,64,0.00,SKC,,0.00,WeatherDisplay:10.37,2013-02-17 08:05:00,
2013-02-17 02:10:00,14.5,4.6,30.14,SW,225,2.3,2.3,64,0.00,SKC,,0.00,WeatherDisplay:10.37,2013-02-17 08:10:00,
2013-02-17 02:15:00,14.5,4.6,30.14,SW,225,2.3,2.3,64,0.00,SKC,,0.00,WeatherDisplay:10.37,2013-02-17 08:15:00,
2013-02-17 02:20:00,14.5,4.6,30.14,SW,225,2.3,2.3,64,0.00,SKC,,0.00,WeatherDisplay:10.37,2013-02-17 08:20:00,
2013-02-17 02:25:00,14.5,4.6,30.14,WSW,248,0.0,1.7,64,0.00,SKC,,0.00,WeatherDisplay:10.37,2013-02-17 08:25:00,
2013-02-17 02:30:00,14.4,4.7,30.14,WNW,292,2.3,2.3,65,0.00,SKC,,0.00,WeatherDisplay:10.37,2013-02-17 08:30:00,
2013-02-17 02:35:00,14.5,4.9,30.14,WNW,292,2.3,2.3,65,0.00,SKC,,0.00,WeatherDisplay:10.37,2013-02-17 08:35:00,
2013-02-17 02:40:00,14.5,4.9,30.14,West,270,3.5,3.5,65,0.00,SKC,,0.00,WeatherDisplay:10.37,2013-02-17 08:40:00,
2013-02-17 02:45:00,14.4,4.7,30.14,West,270,2.0,2.0,65,0.00,SKC,,0.00,WeatherDisplay:10.37,2013-02-17 08:45:00,
2013-02-17 02:50:00,14.5,4.9,30.14,WNW,292,2.3,2.3,65,0.00,SKC,,0.00,WeatherDisplay:10.37,2013-02-17 08:50:00,
2013-02-17 02:55:00,14.2,4.6,30.14,WSW,248,2.0,2.0,65,0.00,SKC,,0.00,WeatherDisplay:10.37,2013-02-17 08:55:00,
2013-02-17 03:00:00,14.2,4.6,30.14,West,270,2.3,2.3,65,0.00,SKC,,0.00,WeatherDisplay:10.37,2013-02-17 09:00:00,
2013-02-17 03:05:00,14.2,4.6,30.14,West,270,1.2,1.2,65,0.00,SKC,,0.00,WeatherDisplay:10.37,2013-02-17 09:05:00,
2013-02-17 03:10:00,14.2,4.6,30.14,West,270,1.2,1.2,65,0.00,SKC,,0.00,WeatherDisplay:10.37,2013-02-17 09:10:00,
2013-02-17 03:15:00,13.8,4.5,30.14,West,270,1.4,1.4,66,0.00,SKC,,0.00,WeatherDisplay:10.37,2013-02-17 09:15:00,
2013-02-17 03:20:00,13.8,4.5,30.14,WSW,248,1.2,1.2,66,0.00,SKC,,0.00,WeatherDisplay:10.37,2013-02-17 09:20:00,
2013-02-17 03:25:00,13.6,4.4,30.13,West,270,1.3,1.3,66,0.00,SKC,,0.00,WeatherDisplay:10.37,2013-02-17 09:25:00,
2013-02-17 03:30:00,13.8,4.5,30.13,SSE,158,2.3,2.3,66,0.00,SKC,,0.00,WeatherDisplay:10.37,2013-02-17 09:30:00,
2013-02-17 03:35:00,13.8,4.5,30.13,West,270,1.2,1.2,66,0.00,SKC,,0.00,WeatherDisplay:10.37,2013-02-17 09:35:00,
2013-02-17 03:40:00,13.8,4.9,30.13,West,270,1.2,1.2,67,0.00,SKC,,0.00,WeatherDisplay:10.37,2013-02-17 09:40:00,
2013-02-17 03:45:00,13.5,4.5,30.14,West,270,2.3,2.3,67,0.00,SKC,,0.00,WeatherDisplay:10.37,2013-02-17 09:45:00,
2013-02-17 03:50:00,13.3,4.4,30.14,WSW,248,1.4,1.4,67,0.00,SKC,,0.00,WeatherDisplay:10.37,2013-02-17 09:50:00,
2013-02-17 03:55:00,13.1,4.2,30.14,WSW,248,0.0,0.8,67,0.00,SKC,,0.00,WeatherDisplay:10.37,2013-02-17 09:55:00,
2013-02-17 04:00:00,13.1,4.2,30.14,WSW,248,0.0,0.5,67,0.00,SKC,,0.00,WeatherDisplay:10.37,2013-02-17 10:00:00,
2013-02-17 04:05:00,13.1,4.5,30.14,West,270,2.3,2.3,68,0.00,SKC,,0.00,WeatherDisplay:10.37,2013-02-17 10:05:00,
2013-02-17 04:10:00,13.1,4.5,30.14,West,270,1.2,1.2,68,0.00,SKC,,0.00,WeatherDisplay:10.37,2013-02-17 10:10:00,
2013-02-17 04:15:00,13.1,4.5,30.14,WSW,248,1.2,1.2,68,0.00,SKC,,0.00,WeatherDisplay:10.37,2013-02-17 10:15:00,
2013-02-17 04:20:00,13.1,4.5,30.14,WSW,248,1.2,1.2,68,0.00,SKC,,0.00,WeatherDisplay:10.37,2013-02-17 10:20:00,
2013-02-17 04:25:00,13.1,4.5,30.14,WSW,248,1.2,1.2,68,0.00,SKC,,0.00,WeatherDisplay:10.37,2013-02-17 10:25:00,
2013-02-17 04:30:00,13.1,4.8,30.14,West,270,1.2,1.2,69,0.00,SKC,,0.00,WeatherDisplay:10.37,2013-02-17 10:30:00,
2013-02-17 04:35:00,12.7,4.5,30.14,West,270,1.2,1.2,69,0.00,SKC,,0.00,WeatherDisplay:10.37,2013-02-17 10:35:00,
2013-02-17 04:40:00,12.7,4.5,30.14,West,270,1.2,1.2,69,0.00,SKC,,0.00,WeatherDisplay:10.37,2013-02-17 10:40:00,
2013-02-17 04:45:00,12.7,4.5,30.15,WSW,248,1.2,1.2,69,0.00,SKC,,0.00,WeatherDisplay:10.37,2013-02-17 10:45:00,
2013-02-17 04:50:00,12.7,4.5,30.15,WSW,248,1.2,1.2,69,0.00,SKC,,0.00,WeatherDisplay:10.37,2013-02-17 10:50:00,
2013-02-17 04:55:00,12.7,4.5,30.15,WSW,248,1.3,1.3,69,0.00,SKC,,0.00,WeatherDisplay:10.37,2013-02-17 10:55:00,
2013-02-17 05:00:00,12.7,4.8,30.15,SW,225,1.2,1.2,70,0.00,SKC,,0.00,WeatherDisplay:10.37,2013-02-17 11:00:00,
2013-02-17 05:05:00,12.7,4.8,30.15,WSW,248,1.2,1.2,70,0.00,SKC,,0.00,WeatherDisplay:10.37,2013-02-17 11:05:00,
2013-02-17 05:10:00,12.6,4.6,30.15,WSW,248,1.2,1.2,70,0.00,SKC,,0.00,WeatherDisplay:10.37,2013-02-17 11:10:00,
2013-02-17 05:15:00,12.4,4.5,30.15,SW,225,1.2,1.2,70,0.00,SKC,,0.00,WeatherDisplay:10.37,2013-02-17 11:15:00,
2013-02-17 05:20:00,12.4,4.5,30.15,WSW,248,0.0,0.3,70,0.00,SKC,,0.00,WeatherDisplay:10.37,2013-02-17 11:20:00,
2013-02-17 05:25:00,12.4,4.8,30.16,SW,225,1.2,1.2,71,0.00,SKC,,0.00,WeatherDisplay:10.37,2013-02-17 11:25:00,
2013-02-17 05:30:00,12.4,4.8,30.16,South,180,1.2,1.2,71,0.00,SKC,,0.00,WeatherDisplay:10.37,2013-02-17 11:30:00,
2013-02-17 05:35:00,12.4,4.8,30.16,SW,225,2.0,2.0,71,0.00,SKC,,0.00,WeatherDisplay:10.37,2013-02-17 11:35:00,
2013-02-17 05:40:00,12.4,4.8,30.16,WSW,248,1.6,1.6,71,0.00,SKC,,0.00,WeatherDisplay:10.37,2013-02-17 11:40:00,
2013-02-17 05:45:00,12.4,4.8,30.16,West,270,1.2,1.2,71,0.00,SKC,,0.00,WeatherDisplay:10.37,2013-02-17 11:45:00,
2013-02-17 05:50:00,12.4,5.1,30.16,WSW,248,1.4,1.4,72,0.00,SKC,,0.00,WeatherDisplay:10.37,2013-02-17 11:50:00,
2013-02-17 05:55:00,12.4,5.1,30.16,SW,225,0.0,0.6,72,0.00,SKC,,0.00,WeatherDisplay:10.37,2013-02-17 11:55:00,
2013-02-17 06:00:00,12.4,5.1,30.16,WSW,248,1.2,1.2,72,0.00,SKC,,0.00,WeatherDisplay:10.37,2013-02-17 12:00:00,
2013-02-17 06:05:00,12.4,5.1,30.17,WSW,248,2.3,2.3,72,0.00,FEW,,0.00,WeatherDisplay:10.37,2013-02-17 12:05:00,
2013-02-17 06:10:00,12.4,5.1,30.17,WSW,248,2.3,2.3,72,0.00,FEW,,0.00,WeatherDisplay:10.37,2013-02-17 12:10:00,
2013-02-17 06:15:00,12.4,5.1,30.17,SW,225,2.1,2.1,72,0.00,FEW,,0.00,WeatherDisplay:10.37,2013-02-17 12:15:00,
2013-02-17 06:20:00,12.4,5.4,30.17,West,270,2.3,2.3,73,0.00,FEW,,0.00,WeatherDisplay:10.37,2013-02-17 12:20:00,
2013-02-17 06:25:00,12.4,5.4,30.17,West,270,1.2,1.2,73,0.00,FEW,,0.00,WeatherDisplay:10.37,2013-02-17 12:25:00,
2013-02-17 06:30:00,12.4,5.4,30.17,WSW,248,2.3,2.3,73,0.00,FEW,,0.00,WeatherDisplay:10.37,2013-02-17 12:30:00,
2013-02-17 06:35:00,12.7,5.7,30.17,WSW,248,2.3,2.3,73,0.00,FEW,,0.00,WeatherDisplay:10.37,2013-02-17 12:35:00,
2013-02-17 06:40:00,12.6,5.5,30.17,West,270,1.4,1.4,73,0.00,FEW,,0.00,WeatherDisplay:10.37,2013-02-17 12:40:00,
2013-02-17 06:45:00,12.6,5.5,30.18,WSW,248,3.5,3.5,73,0.00,FEW,,0.00,WeatherDisplay:10.37,2013-02-17 12:45:00,
2013-02-17 06:50:00,12.7,5.7,30.18,WSW,248,2.3,2.3,73,0.00,FEW,,0.00,WeatherDisplay:10.37,2013-02-17 12:50:00,
2013-02-17 06:55:00,12.7,5.7,30.18,SW,225,1.2,1.2,73,0.00,FEW,,0.00,WeatherDisplay:10.37,2013-02-17 12:55:00,
2013-02-17 07:00:00,12.7,5.7,30.18,WSW,248,2.3,2.3,73,0.00,FEW,,0.00,WeatherDisplay:10.37,2013-02-17 13:00:00,
2013-02-17 07:05:00,12.7,5.7,30.18,WSW,248,2.3,2.3,73,0.00,FEW,,0.00,WeatherDisplay:10.37,2013-02-17 13:05:00,
2013-02-17 07:10:00,12.7,5.7,30.18,West,270,1.2,1.2,73,0.00,FEW,,0.00,WeatherDisplay:10.37,2013-02-17 13:10:00,
2013-02-17 07:15:00,13.1,6.1,30.18,SW,225,0.0,1.2,73,0.00,FEW,,0.00,WeatherDisplay:10.37,2013-02-17 13:15:00,
2013-02-17 07:20:00,12.9,5.9,30.18,WSW,248,1.6,1.6,73,0.00,FEW,,0.00,WeatherDisplay:10.37,2013-02-17 13:20:00,
2013-02-17 07:25:00,13.1,6.1,30.19,WSW,248,0.0,0.5,73,0.00,FEW,,0.00,WeatherDisplay:10.37,2013-02-17 13:25:00,
2013-02-17 07:30:00,13.3,6.2,30.19,West,270,2.4,2.4,73,0.00,FEW,,0.00,WeatherDisplay:10.37,2013-02-17 13:30:00,
2013-02-17 07:35:00,13.6,6.6,30.19,WSW,248,3.2,3.2,73,0.00,FEW,,0.00,WeatherDisplay:10.37,2013-02-17 13:35:00,
2013-02-17 07:40:00,13.8,6.8,30.19,WSW,248,0.0,1.4,73,0.00,FEW,,0.00,WeatherDisplay:10.37,2013-02-17 13:40:00,
2013-02-17 07:45:00,14.5,7.8,30.19,WNW,292,3.5,3.5,74,0.00,FEW,,0.00,WeatherDisplay:10.37,2013-02-17 13:45:00,
2013-02-17 07:50:00,15.3,8.2,30.19,WNW,292,4.6,4.6,73,0.00,FEW,,0.00,WeatherDisplay:10.37,2013-02-17 13:50:00,
2013-02-17 07:55:00,15.4,8.3,30.19,West,270,2.3,2.3,73,0.00,FEW,,0.00,WeatherDisplay:10.37,2013-02-17 13:55:00,
2013-02-17 08:00:00,16.0,8.5,30.19,SW,225,2.3,2.3,72,0.00,FEW,,0.00,WeatherDisplay:10.37,2013-02-17 14:00:00,
2013-02-17 08:05:00,16.7,9.2,30.19,West,270,0.0,1.3,72,0.00,FEW,,0.00,WeatherDisplay:10.37,2013-02-17 14:05:00,
2013-02-17 08:10:00,17.4,9.6,30.19,West,270,3.5,3.5,71,0.00,FEW,,0.00,WeatherDisplay:10.37,2013-02-17 14:10:00,
2013-02-17 08:15:00,17.8,10.0,30.19,WSW,248,2.3,2.3,71,0.00,FEW,,0.00,WeatherDisplay:10.37,2013-02-17 14:15:00,
2013-02-17 08:20:00,18.5,10.7,30.19,SSE,158,0.0,0.8,71,0.00,FEW,,0.00,WeatherDisplay:10.37,2013-02-17 14:20:00,
2013-02-17 08:25:00,19.9,11.7,30.19,South,180,0.0,0.3,70,0.00,FEW,,0.00,WeatherDisplay:10.37,2013-02-17 14:25:00,
2013-02-17 08:30:00,21.0,12.4,30.19,WSW,248,1.3,1.3,69,0.00,FEW,,0.00,WeatherDisplay:10.37,2013-02-17 14:30:00,
2013-02-17 08:35:00,21.7,12.8,30.19,SW,225,2.3,2.3,68,0.00,FEW,,0.00,WeatherDisplay:10.37,2013-02-17 14:35:00,
2013-02-17 08:40:00,22.3,13.0,30.19,SW,225,2.4,2.4,67,0.00,FEW,,0.00,WeatherDisplay:10.37,2013-02-17 14:40:00,
2013-02-17 08:45:00,23.2,13.5,30.21,WSW,248,3.5,3.5,66,0.00,FEW,,0.00,WeatherDisplay:10.37,2013-02-17 14:45:00,
2013-02-17 08:50:00,23.2,13.1,30.21,WSW,248,0.0,1.6,65,0.00,FEW,,0.00,WeatherDisplay:10.37,2013-02-17 14:50:00,
2013-02-17 08:55:00,23.2,12.8,30.21,WSW,248,2.3,2.3,64,0.00,FEW,,0.00,WeatherDisplay:10.37,2013-02-17 14:55:00,
2013-02-17 09:00:00,23.2,12.4,30.21,WSW,248,2.3,2.3,63,0.00,FEW,,0.00,WeatherDisplay:10.37,2013-02-17 15:00:00,
2013-02-17 09:05:00,23.9,13.1,30.22,West,270,2.3,2.3,63,0.00,FEW,,0.00,WeatherDisplay:10.37,2013-02-17 15:05:00,
2013-02-17 09:10:00,24.1,13.3,30.22,WSW,248,2.3,2.3,63,0.00,FEW,,0.00,WeatherDisplay:10.37,2013-02-17 15:10:00,
2013-02-17 09:15:00,24.3,12.7,30.22,NW,315,4.6,4.6,61,0.00,FEW,,0.00,WeatherDisplay:10.37,2013-02-17 15:15:00,
2013-02-17 09:20:00,24.1,12.6,30.22,WSW,248,3.7,3.7,61,0.00,FEW,,0.00,WeatherDisplay:10.37,2013-02-17 15:20:00,
2013-02-17 09:25:00,25.3,13.4,30.23,South,180,2.3,2.3,60,0.00,FEW,,0.00,WeatherDisplay:10.37,2013-02-17 15:25:00,
2013-02-17 09:30:00,26.1,13.7,30.23,South,180,2.3,2.3,59,0.00,FEW,,0.00,WeatherDisplay:10.37,2013-02-17 15:30:00,
2013-02-17 09:35:00,26.2,13.1,30.23,SSW,202,2.3,2.3,57,0.00,FEW,,0.00,WeatherDisplay:10.37,2013-02-17 15:35:00,
2013-02-17 09:40:00,26.6,12.6,30.23,SW,225,5.8,5.8,55,0.00,FEW,,0.00,WeatherDisplay:10.37,2013-02-17 15:40:00,
2013-02-17 09:45:00,26.8,12.3,30.24,WSW,248,3.6,3.6,54,0.00,FEW,,0.00,WeatherDisplay:10.37,2013-02-17 15:45:00,
2013-02-17 09:50:00,27.0,12.5,30.24,SSE,158,2.3,2.3,54,0.00,FEW,,0.00,WeatherDisplay:10.37,2013-02-17 15:50:00,
2013-02-17 09:55:00,27.9,12.9,30.24,ESE,112,3.5,3.5,53,0.00,FEW,,0.00,WeatherDisplay:10.37,2013-02-17 15:55:00,
2013-02-17 10:00:00,28.2,13.3,30.24,South,180,2.8,2.8,53,0.00,FEW,,0.00,WeatherDisplay:10.37,2013-02-17 16:00:00,
2013-02-17 10:05:00,28.6,12.7,30.25,SW,225,3.5,3.5,51,0.00,SKC,,0.00,WeatherDisplay:10.37,2013-02-17 16:05:00,
2013-02-17 10:10:00,28.6,12.7,30.25,WSW,248,2.6,2.6,51,0.00,SKC,,0.00,WeatherDisplay:10.37,2013-02-17 16:10:00,
2013-02-17 10:15:00,28.9,12.6,30.25,South,180,4.6,4.6,50,0.00,SKC,,0.00,WeatherDisplay:10.37,2013-02-17 16:15:00,
2013-02-17 10:20:00,28.4,11.2,30.25,WSW,248,2.3,3.3,48,0.00,SKC,,0.00,WeatherDisplay:10.37,2013-02-17 16:20:00,
2013-02-17 10:25:00,28.2,11.0,30.25,SE,135,7.0,7.0,48,0.00,SKC,,0.00,WeatherDisplay:10.37,2013-02-17 16:25:00,
2013-02-17 10:30:00,28.2,11.0,30.25,SSE,158,4.6,4.6,48,0.00,SKC,,0.00,WeatherDisplay:10.37,2013-02-17 16:30:00,
2013-02-17 10:35:00,28.9,12.1,30.25,SE,135,4.6,4.6,49,0.00,SKC,,0.00,WeatherDisplay:10.37,2013-02-17 16:35:00,
2013-02-17 10:40:00,29.3,12.5,30.25,SSE,158,3.6,3.6,49,0.00,SKC,,0.00,WeatherDisplay:10.37,2013-02-17 16:40:00,
2013-02-17 10:45:00,29.3,12.0,30.25,ESE,112,8.1,8.1,48,0.00,SKC,,0.00,WeatherDisplay:10.37,2013-02-17 16:45:00,
2013-02-17 10:50:00,29.3,12.0,30.25,NNE,22,2.3,3.0,48,0.00,SKC,,0.00,WeatherDisplay:10.37,2013-02-17 16:50:00,
2013-02-17 10:55:00,29.7,11.9,30.25,ESE,112,3.5,3.5,47,0.00,SKC,,0.00,WeatherDisplay:10.37,2013-02-17 16:55:00,
2013-02-17 11:00:00,29.8,11.5,30.25,South,180,4.7,4.7,46,0.00,SKC,,0.00,WeatherDisplay:10.37,2013-02-17 17:00:00,
2013-02-17 11:05:00,30.0,11.2,30.25,SSE,158,8.1,8.1,45,0.00,SKC,,0.00,WeatherDisplay:10.37,2013-02-17 17:05:00,
2013-02-17 11:10:00,30.2,11.9,30.25,South,180,3.5,3.7,46,0.00,SKC,,0.00,WeatherDisplay:10.37,2013-02-17 17:10:00,
2013-02-17 11:15:00,30.4,11.0,30.25,SSE,158,4.6,4.6,44,0.00,SKC,,0.00,WeatherDisplay:10.37,2013-02-17 17:15:00,
2013-02-17 11:20:00,30.6,10.7,30.25,South,180,5.9,5.9,43,0.00,SKC,,0.00,WeatherDisplay:10.37,2013-02-17 17:20:00,
2013-02-17 11:25:00,30.6,10.7,30.25,South,180,4.6,4.6,43,0.00,SKC,,0.00,WeatherDisplay:10.37,2013-02-17 17:25:00,
2013-02-17 11:30:00,30.7,10.3,30.25,WSW,248,6.1,6.1,42,0.00,SKC,,0.00,WeatherDisplay:10.37,2013-02-17 17:30:00,
2013-02-17 11:35:00,30.7,9.8,30.25,ESE,112,6.9,6.9,41,0.00,SKC,,0.00,WeatherDisplay:10.37,2013-02-17 17:35:00,
2013-02-17 11:40:00,30.4,10.0,30.25,South,180,6.1,6.1,42,0.00,SKC,,0.00,WeatherDisplay:10.37,2013-02-17 17:40:00,
2013-02-17 11:45:00,30.7,10.3,30.23,South,180,4.6,4.6,42,0.00,SKC,,0.00,WeatherDisplay:10.37,2013-02-17 17:45:00,
2013-02-17 11:50:00,31.1,10.6,30.23,East,90,2.6,3.5,42,0.00,SKC,,0.00,WeatherDisplay:10.37,2013-02-17 17:50:00,
2013-02-17 11:55:00,31.1,10.1,30.23,WSW,248,4.8,4.8,41,0.00,SKC,,0.00,WeatherDisplay:10.37,2013-02-17 17:55:00,
2013-02-17 12:00:00,31.1,10.1,30.23,SSE,158,4.6,4.6,41,0.00,SKC,,0.00,WeatherDisplay:10.37,2013-02-17 18:00:00,
2013-02-17 12:05:00,31.1,10.1,30.24,ENE,68,4.6,4.6,41,0.00,SKC,,0.00,WeatherDisplay:10.37,2013-02-17 18:05:00,
2013-02-17 12:10:00,31.1,10.1,30.24,ENE,68,4.6,4.6,41,0.00,SKC,,0.00,WeatherDisplay:10.37,2013-02-17 18:10:00,
2013-02-17 12:15:00,31.8,10.2,30.24,SW,225,3.5,3.5,40,0.00,SKC,,0.00,WeatherDisplay:10.37,2013-02-17 18:15:00,
2013-02-17 12:20:00,31.8,10.2,30.24,SSW,202,6.9,6.9,40,0.00,SKC,,0.00,WeatherDisplay:10.37,2013-02-17 18:20:00,
2013-02-17 12:25:00,31.8,9.6,30.24,South,180,8.1,8.1,39,0.00,SKC,,0.00,WeatherDisplay:10.37,2013-02-17 18:25:00,
2013-02-17 12:30:00,32.2,10.5,30.24,WSW,248,2.3,4.4,40,0.00,SKC,,0.00,WeatherDisplay:10.37,2013-02-17 18:30:00,
2013-02-17 12:35:00,32.0,9.8,30.24,SE,135,5.1,5.1,39,0.00,SKC,,0.00,WeatherDisplay:10.37,2013-02-17 18:35:00,
2013-02-17 12:40:00,32.5,10.3,30.24,SW,225,4.6,4.6,39,0.00,SKC,,0.00,WeatherDisplay:10.37,2013-02-17 18:40:00,
2013-02-17 12:45:00,33.3,10.9,30.24,SSE,158,6.9,6.9,39,0.00,SKC,,0.00,WeatherDisplay:10.37,2013-02-17 18:45:00,
2013-02-17 12:50:00,32.7,9.9,30.24,SSE,158,5.8,5.8,38,0.00,SKC,,0.00,WeatherDisplay:10.37,2013-02-17 18:50:00,
2013-02-17 12:55:00,32.2,10.0,30.24,SE,135,8.1,8.1,39,0.00,SKC,,0.00,WeatherDisplay:10.37,2013-02-17 18:55:00,
2013-02-17 13:00:00,32.4,10.1,30.24,SW,225,3.6,4.1,39,0.00,SKC,,0.00,WeatherDisplay:10.37,2013-02-17 19:00:00,
2013-02-17 13:05:00,32.5,10.3,30.22,SW,225,8.1,8.1,39,0.00,FEW,,0.00,WeatherDisplay:10.37,2013-02-17 19:05:00,
2013-02-17 13:10:00,32.5,10.3,30.22,SSW,202,4.7,4.7,39,0.00,FEW,,0.00,WeatherDisplay:10.37,2013-02-17 19:10:00,
2013-02-17 13:15:00,32.5,10.3,30.22,SSW,202,8.3,8.3,39,0.00,FEW,,0.00,WeatherDisplay:10.37,2013-02-17 19:15:00,
2013-02-17 13:20:00,32.7,10.4,30.22,South,180,4.6,4.6,39,0.00,FEW,,0.00,WeatherDisplay:10.37,2013-02-17 19:20:00,
2013-02-17 13:25:00,33.3,11.5,30.22,SW,225,2.5,4.1,40,0.00,FEW,,0.00,WeatherDisplay:10.37,2013-02-17 19:25:00,
2013-02-17 13:30:00,33.4,11.1,30.22,NW,315,5.8,5.8,39,0.00,FEW,,0.00,WeatherDisplay:10.37,2013-02-17 19:30:00,
2013-02-17 13:35:00,34.0,11.6,30.22,South,180,6.9,6.9,39,0.00,FEW,,0.00,WeatherDisplay:10.37,2013-02-17 19:35:00,
2013-02-17 13:40:00,33.8,11.4,30.22,SSE,158,6.9,6.9,39,0.00,FEW,,0.00,WeatherDisplay:10.37,2013-02-17 19:40:00,
2013-02-17 13:45:00,32.9,8.8,30.22,SSE,158,6.9,6.9,36,0.00,FEW,,0.00,WeatherDisplay:10.37,2013-02-17 19:45:00,
2013-02-17 13:50:00,32.5,9.1,30.22,South,180,7.2,7.2,37,0.00,FEW,,0.00,WeatherDisplay:10.37,2013-02-17 19:50:00,
2013-02-17 13:55:00,33.1,10.2,30.22,South,180,4.6,4.6,38,0.00,FEW,,0.00,WeatherDisplay:10.37,2013-02-17 19:55:00,
2013-02-17 14:00:00,33.6,10.7,30.22,SW,225,2.3,3.5,38,0.00,FEW,,0.00,WeatherDisplay:10.37,2013-02-17 20:00:00,
2013-02-17 14:05:00,33.4,10.5,30.21,South,180,6.0,6.0,38,0.00,FEW,,0.00,WeatherDisplay:10.37,2013-02-17 20:05:00,
2013-02-17 14:10:00,33.4,9.9,30.21,SW,225,4.6,4.6,37,0.00,FEW,,0.00,WeatherDisplay:10.37,2013-02-17 20:10:00,
2013-02-17 14:15:00,34.0,11.0,30.21,South,180,5.8,5.8,38,0.00,FEW,,0.00,WeatherDisplay:10.37,2013-02-17 20:15:00,
2013-02-17 14:20:00,33.6,10.7,30.21,SSE,158,9.2,9.2,38,0.00,FEW,,0.00,WeatherDisplay:10.37,2013-02-17 20:20:00,
2013-02-17 14:25:00,33.6,10.7,30.20,South,180,6.9,6.9,38,0.00,FEW,,0.00,WeatherDisplay:10.37,2013-02-17 20:25:00,
2013-02-17 14:30:00,33.6,10.7,30.20,West,270,4.9,4.9,38,0.00,FEW,,0.00,WeatherDisplay:10.37,2013-02-17 20:30:00,
2013-02-17 14:35:00,33.3,10.4,30.20,SSE,158,3.5,3.5,38,0.00,FEW,,0.00,WeatherDisplay:10.37,2013-02-17 20:35:00,
2013-02-17 14:40:00,33.3,9.8,30.20,SE,135,2.3,3.3,37,0.00,FEW,,0.00,WeatherDisplay:10.37,2013-02-17 20:40:00,
2013-02-17 14:45:00,33.3,9.8,30.20,SE,135,4.6,4.6,37,0.00,FEW,,0.00,WeatherDisplay:10.37,2013-02-17 20:45:00,
2013-02-17 14:50:00,33.3,9.8,30.20,SW,221,3.0,5.0,37,0.00,FEW,,0.00,WeatherDisplay:10.37,2013-02-17 20:50:00,
2013-02-17 14:55:00,34.0,11.0,30.20,SW,225,8.1,8.1,38,0.00,FEW,,0.00,WeatherDisplay:10.37,2013-02-17 20:55:00,
2013-02-17 15:00:00,34.0,11.0,30.20,SE,135,2.6,3.5,38,0.00,FEW,,0.00,WeatherDisplay:10.37,2013-02-17 21:00:00,
2013-02-17 15:05:00,34.0,11.0,30.20,SW,225,5.8,5.8,38,0.00,FEW,,0.00,WeatherDisplay:10.37,2013-02-17 21:05:00,
2013-02-17 15:10:00,33.6,10.7,30.20,SSW,202,2.3,3.2,38,0.00,FEW,,0.00,WeatherDisplay:10.37,2013-02-17 21:10:00,
2013-02-17 15:15:00,33.8,10.8,30.20,SE,135,4.6,4.6,38,0.00,FEW,,0.00,WeatherDisplay:10.37,2013-02-17 21:15:00,
2013-02-17 15:20:00,34.2,11.2,30.20,South,180,4.6,4.6,38,0.00,FEW,,0.00,WeatherDisplay:10.37,2013-02-17 21:20:00,
2013-02-17 15:25:00,33.4,9.9,30.19,South,180,5.8,5.8,37,0.00,FEW,,0.00,WeatherDisplay:10.37,2013-02-17 21:25:00,
2013-02-17 15:30:00,33.6,10.7,30.19,SW,225,2.3,2.4,38,0.00,FEW,,0.00,WeatherDisplay:10.37,2013-02-17 21:30:00,
2013-02-17 15:35:00,33.3,10.4,30.19,SW,225,5.8,5.8,38,0.00,FEW,,0.00,WeatherDisplay:10.37,2013-02-17 21:35:00,
2013-02-17 15:40:00,32.7,9.9,30.19,SSE,158,6.9,6.9,38,0.00,FEW,,0.00,WeatherDisplay:10.37,2013-02-17 21:40:00,
2013-02-17 15:45:00,32.4,9.5,30.19,South,180,5.8,5.8,38,0.00,FEW,,0.00,WeatherDisplay:10.37,2013-02-17 21:45:00,
2013-02-17 15:50:00,32.2,9.4,30.19,South,180,7.0,7.0,38,0.00,FEW,,0.00,WeatherDisplay:10.37,2013-02-17 21:50:00,
2013-02-17 15:55:00,32.2,9.4,30.19,South,180,4.6,4.6,38,0.00,FEW,,0.00,WeatherDisplay:10.37,2013-02-17 21:55:00,
2013-02-17 16:00:00,32.2,10.0,30.19,SSE,158,6.9,6.9,39,0.00,FEW,,0.00,WeatherDisplay:10.37,2013-02-17 22:00:00,
2013-02-17 16:05:00,31.8,10.2,30.18,SE,135,6.9,6.9,40,0.00,FEW,,0.00,WeatherDisplay:10.37,2013-02-17 22:05:00,
2013-02-17 16:10:00,31.8,10.2,30.18,SSE,158,5.8,5.8,40,0.00,FEW,,0.00,WeatherDisplay:10.37,2013-02-17 22:10:00,
2013-02-17 16:15:00,31.1,10.1,30.18,South,180,3.5,3.5,41,0.00,FEW,,0.00,WeatherDisplay:10.37,2013-02-17 22:15:00,
2013-02-17 16:20:00,31.1,10.1,30.18,SSE,158,3.5,3.5,41,0.00,FEW,,0.00,WeatherDisplay:10.37,2013-02-17 22:20:00,
2013-02-17 16:25:00,30.9,10.5,30.18,SSE,158,5.8,5.8,42,0.00,FEW,,0.00,WeatherDisplay:10.37,2013-02-17 22:25:00,
2013-02-17 16:30:00,31.1,10.6,30.18,SSE,158,4.6,4.6,42,0.00,FEW,,0.00,WeatherDisplay:10.37,2013-02-17 22:30:00,
2013-02-17 16:35:00,30.7,10.3,30.18,SE,135,4.7,4.7,42,0.00,FEW,,0.00,WeatherDisplay:10.37,2013-02-17 22:35:00,
2013-02-17 16:40:00,30.7,10.3,30.18,SE,135,6.9,6.9,42,0.00,FEW,,0.00,WeatherDisplay:10.37,2013-02-17 22:40:00,
2013-02-17 16:45:00,30.6,10.2,30.18,SE,135,5.9,5.9,42,0.00,FEW,,0.00,WeatherDisplay:10.37,2013-02-17 22:45:00,
2013-02-17 16:50:00,30.4,10.0,30.18,SSE,158,2.3,3.5,42,0.00,FEW,,0.00,WeatherDisplay:10.37,2013-02-17 22:50:00,
2013-02-17 16:55:00,30.4,10.0,30.18,SE,135,3.5,3.5,42,0.00,FEW,,0.00,WeatherDisplay:10.37,2013-02-17 22:55:00,
2013-02-17 17:00:00,30.0,9.7,30.18,SE,135,2.8,3.0,42,0.00,FEW,,0.00,WeatherDisplay:10.37,2013-02-17 23:00:00,
2013-02-17 17:05:00,30.0,9.7,30.12,SSE,157,3.0,5.0,42,0.00,BKN,,0.00,WeatherDisplay:10.37,2013-02-17 23:05:00,
2013-02-17 17:10:00,30.0,10.2,30.12,South,180,4.6,4.6,43,0.00,BKN,,0.00,WeatherDisplay:10.37,2013-02-17 23:10:00,
2013-02-17 17:15:00,29.7,9.9,30.12,SSE,158,4.6,4.6,43,0.00,BKN,,0.00,WeatherDisplay:10.37,2013-02-17 23:15:00,
2013-02-17 17:20:00,29.7,10.4,30.12,South,180,2.6,2.6,44,0.00,BKN,,0.00,WeatherDisplay:10.37,2013-02-17 23:20:00,
2013-02-17 17:25:00,29.1,9.9,30.10,ENE,68,3.5,3.5,44,0.00,BKN,,0.00,WeatherDisplay:10.37,2013-02-17 23:25:00,
2013-02-17 17:30:00,28.9,9.7,30.10,SSE,158,2.8,2.8,44,0.00,BKN,,0.00,WeatherDisplay:10.37,2013-02-17 23:30:00,
2013-02-17 17:35:00,28.6,9.9,30.10,SSE,158,3.5,3.5,45,0.00,BKN,,0.00,WeatherDisplay:10.37,2013-02-17 23:35:00,
2013-02-17 17:40:00,28.6,10.4,30.10,SSE,158,2.3,2.3,46,0.00,BKN,,0.00,WeatherDisplay:10.37,2013-02-17 23:40:00,
2013-02-17 17:45:00,28.2,10.1,30.10,South,180,2.3,2.3,46,0.00,BKN,,0.00,WeatherDisplay:10.37,2013-02-17 23:45:00,
2013-02-17 17:50:00,28.2,10.1,30.10,South,180,2.3,2.3,46,0.00,BKN,,0.00,WeatherDisplay:10.37,2013-02-17 23:50:00,
2013-02-17 17:55:00,28.2,10.5,30.10,South,180,2.3,2.3,47,0.00,BKN,,0.00,WeatherDisplay:10.37,2013-02-17 23:55:00,
2013-02-17 18:00:00,27.9,10.2,30.10,South,180,2.3,2.3,47,0.00,BKN,,0.00,WeatherDisplay:10.37,2013-02-18 00:00:00,
2013-02-17 18:05:00,27.7,10.5,30.10,SSE,158,2.3,2.3,48,0.00,BKN,,0.00,WeatherDisplay:10.37,2013-02-18 00:05:00,
2013-02-17 18:10:00,27.9,10.7,30.10,SSW,202,1.2,1.8,48,0.00,BKN,,0.00,WeatherDisplay:10.37,2013-02-18 00:10:00,
2013-02-17 18:15:00,27.5,10.4,30.10,SE,135,2.3,2.3,48,0.00,BKN,,0.00,WeatherDisplay:10.37,2013-02-18 00:15:00,
2013-02-17 18:20:00,27.1,10.5,30.10,SE,135,3.5,3.5,49,0.00,BKN,,0.00,WeatherDisplay:10.37,2013-02-18 00:20:00,
2013-02-17 18:25:00,27.1,10.5,30.10,WNW,292,1.2,1.2,49,0.00,BKN,,0.00,WeatherDisplay:10.37,2013-02-18 00:25:00,
2013-02-17 18:30:00,27.1,10.5,30.10,SE,135,1.2,1.2,49,0.00,BKN,,0.00,WeatherDisplay:10.37,2013-02-18 00:30:00,
2013-02-17 18:35:00,26.8,10.6,30.10,South,180,2.3,2.3,50,0.00,BKN,,0.00,WeatherDisplay:10.37,2013-02-18 00:35:00,
2013-02-17 18:40:00,26.6,10.4,30.10,South,180,0.0,0.9,50,0.00,BKN,,0.00,WeatherDisplay:10.37,2013-02-18 00:40:00,
2013-02-17 18:45:00,26.4,10.7,30.10,SSE,158,2.3,2.3,51,0.00,BKN,,0.00,WeatherDisplay:10.37,2013-02-18 00:45:00,
2013-02-17 18:50:00,26.2,10.5,30.10,South,180,1.2,1.2,51,0.00,BKN,,0.00,WeatherDisplay:10.37,2013-02-18 00:50:00,
2013-02-17 18:55:00,26.1,10.8,30.10,SSE,158,0.0,0.2,52,0.00,BKN,,0.00,WeatherDisplay:10.37,2013-02-18 00:55:00,
2013-02-17 19:00:00,26.1,10.8,30.10,SE,135,0.0,0.1,52,0.00,BKN,,0.00,WeatherDisplay:10.37,2013-02-18 01:00:00,
2013-02-17 19:05:00,25.7,10.5,30.10,SSE,158,2.3,2.3,52,0.00,BKN,,0.00,WeatherDisplay:10.37,2013-02-18 01:05:00,
2013-02-17 19:10:00,25.5,10.7,30.10,SE,135,0.0,0.2,53,0.00,BKN,,0.00,WeatherDisplay:10.37,2013-02-18 01:10:00,
2013-02-17 19:15:00,25.5,11.2,30.10,SE,135,2.3,2.3,54,0.00,BKN,,0.00,WeatherDisplay:10.37,2013-02-18 01:15:00,
2013-02-17 19:20:00,25.5,11.2,30.10,SSE,158,0.0,0.3,54,0.00,BKN,,0.00,WeatherDisplay:10.37,2013-02-18 01:20:00,
2013-02-17 19:25:00,25.7,11.7,30.10,SSE,158,2.3,2.3,55,0.00,BKN,,0.00,WeatherDisplay:10.37,2013-02-18 01:25:00,
2013-02-17 19:30:00,26.1,12.5,30.10,SSE,158,1.2,1.2,56,0.00,BKN,,0.00,WeatherDisplay:10.37,2013-02-18 01:30:00,
2013-02-17 19:35:00,26.1,12.5,30.10,SSE,158,2.3,2.3,56,0.00,BKN,,0.00,WeatherDisplay:10.37,2013-02-18 01:35:00,
2013-02-17 19:40:00,26.1,12.5,30.10,South,180,2.3,2.3,56,0.00,BKN,,0.00,WeatherDisplay:10.37,2013-02-18 01:40:00,
2013-02-17 19:45:00,26.1,12.9,30.10,South,180,3.5,3.5,57,0.00,BKN,,0.00,WeatherDisplay:10.37,2013-02-18 01:45:00,
2013-02-17 19:50:00,26.1,12.9,30.10,South,180,2.3,2.3,57,0.00,BKN,,0.00,WeatherDisplay:10.37,2013-02-18 01:50:00,
2013-02-17 19:55:00,26.1,12.9,30.10,ESE,112,2.5,2.5,57,0.00,BKN,,0.00,WeatherDisplay:10.37,2013-02-18 01:55:00,
2013-02-17 20:00:00,26.1,12.9,30.10,ESE,112,2.5,2.5,57,0.00,BKN,,0.00,WeatherDisplay:10.37,2013-02-18 02:00:00,
2013-02-17 20:05:00,26.1,12.9,30.09,SSE,158,2.3,2.3,57,0.00,SCT,,0.00,WeatherDisplay:10.37,2013-02-18 02:05:00,
2013-02-17 20:10:00,26.1,13.3,30.09,SSE,158,4.8,4.8,58,0.00,SCT,,0.00,WeatherDisplay:10.37,2013-02-18 02:10:00,
2013-02-17 20:15:00,25.9,13.1,30.09,ESE,112,3.6,3.6,58,0.00,SCT,,0.00,WeatherDisplay:10.37,2013-02-18 02:15:00,
2013-02-17 20:20:00,26.1,13.3,30.09,SW,225,2.3,2.8,58,0.00,SCT,,0.00,WeatherDisplay:10.37,2013-02-18 02:20:00,
2013-02-17 20:25:00,26.1,13.7,30.09,SE,135,3.5,3.5,59,0.00,SCT,,0.00,WeatherDisplay:10.37,2013-02-18 02:25:00,
2013-02-17 20:30:00,26.1,13.7,30.09,South,180,2.3,2.3,59,0.00,SCT,,0.00,WeatherDisplay:10.37,2013-02-18 02:30:00,
2013-02-17 20:35:00,26.1,13.7,30.09,South,180,3.5,3.5,59,0.00,SCT,,0.00,WeatherDisplay:10.37,2013-02-18 02:35:00,
2013-02-17 20:40:00,26.1,13.7,30.09,SE,135,3.5,3.5,59,0.00,SCT,,0.00,WeatherDisplay:10.37,2013-02-18 02:40:00,
2013-02-17 20:45:00,26.1,13.7,30.09,South,180,5.2,5.2,59,0.00,SCT,,0.00,WeatherDisplay:10.37,2013-02-18 02:45:00,
2013-02-17 20:50:00,26.1,13.7,30.09,SSE,158,3.5,3.5,59,0.00,SCT,,0.00,WeatherDisplay:10.37,2013-02-18 02:50:00,
2013-02-17 20:55:00,26.1,13.7,30.09,South,180,2.9,2.9,59,0.00,SCT,,0.00,WeatherDisplay:10.37,2013-02-18 02:55:00,
2013-02-17 21:00:00,26.1,13.7,30.09,ESE,112,2.3,2.6,59,0.00,SCT,,0.00,WeatherDisplay:10.37,2013-02-18 03:00:00,
2013-02-17 21:05:00,26.1,13.7,30.08,South,180,5.8,5.8,59,0.00,SCT,,0.00,WeatherDisplay:10.37,2013-02-18 03:05:00,
2013-02-17 21:10:00,26.2,13.8,30.08,SE,135,2.3,2.9,59,0.00,SCT,,0.00,WeatherDisplay:10.37,2013-02-18 03:10:00,
2013-02-17 21:15:00,26.4,13.6,30.08,SSE,158,4.6,4.6,58,0.00,SCT,,0.00,WeatherDisplay:10.37,2013-02-18 03:15:00,
2013-02-17 21:20:00,26.4,13.6,30.08,SSE,158,2.3,2.5,58,0.00,SCT,,0.00,WeatherDisplay:10.37,2013-02-18 03:20:00,
2013-02-17 21:25:00,26.6,13.8,30.07,SSE,158,3.5,3.5,58,0.00,SCT,,0.00,WeatherDisplay:10.37,2013-02-18 03:25:00,
2013-02-17 21:30:00,26.8,14.0,30.07,SE,135,2.3,2.3,58,0.00,SCT,,0.00,WeatherDisplay:10.37,2013-02-18 03:30:00,
2013-02-17 21:35:00,26.8,14.0,30.07,SSE,158,6.9,6.9,58,0.00,SCT,,0.00,WeatherDisplay:10.37,2013-02-18 03:35:00,
2013-02-17 21:40:00,27.1,14.3,30.07,SSE,158,2.3,2.8,58,0.00,SCT,,0.00,WeatherDisplay:10.37,2013-02-18 03:40:00,
2013-02-17 21:45:00,27.0,13.7,30.08,South,180,5.8,5.8,57,0.00,SCT,,0.00,WeatherDisplay:10.37,2013-02-18 03:45:00,
2013-02-17 21:50:00,27.1,13.9,30.08,SW,225,4.6,4.6,57,0.00,SCT,,0.00,WeatherDisplay:10.37,2013-02-18 03:50:00,
2013-02-17 21:55:00,27.1,14.3,30.08,SSE,158,4.6,4.6,58,0.00,SCT,,0.00,WeatherDisplay:10.37,2013-02-18 03:55:00,
2013-02-17 22:00:00,27.1,14.3,30.08,South,180,8.1,8.1,58,0.00,SCT,,0.00,WeatherDisplay:10.37,2013-02-18 04:00:00,
2013-02-17 22:05:00,27.1,14.3,30.08,SE,135,5.8,5.8,58,0.00,SCT,,0.00,WeatherDisplay:10.37,2013-02-18 04:05:00,
2013-02-17 22:10:00,27.0,14.1,30.08,South,180,3.5,3.5,58,0.00,SCT,,0.00,WeatherDisplay:10.37,2013-02-18 04:10:00,
2013-02-17 22:15:00,27.0,14.1,30.08,SSE,158,4.6,4.6,58,0.00,SCT,,0.00,WeatherDisplay:10.37,2013-02-18 04:15:00,
2013-02-17 22:20:00,27.0,14.1,30.08,South,180,3.5,3.5,58,0.00,SCT,,0.00,WeatherDisplay:10.37,2013-02-18 04:20:00,
2013-02-17 22:25:00,27.1,14.3,30.08,South,180,3.5,3.5,58,0.00,SCT,,0.00,WeatherDisplay:10.37,2013-02-18 04:25:00,
2013-02-17 22:30:00,26.8,14.0,30.08,SSE,158,3.5,3.5,58,0.00,SCT,,0.00,WeatherDisplay:10.37,2013-02-18 04:30:00,
2013-02-17 22:35:00,26.8,14.0,30.08,ENE,68,4.6,4.6,58,0.00,SCT,,0.00,WeatherDisplay:10.37,2013-02-18 04:35:00,
2013-02-17 22:40:00,26.8,14.0,30.08,SE,135,6.9,6.9,58,0.00,SCT,,0.00,WeatherDisplay:10.37,2013-02-18 04:40:00,
2013-02-17 22:45:00,26.8,14.0,30.07,WSW,248,2.5,3.7,58,0.00,SCT,,0.00,WeatherDisplay:10.37,2013-02-18 04:45:00,
2013-02-17 22:50:00,26.8,14.0,30.07,SSE,158,2.3,3.3,58,0.00,SCT,,0.00,WeatherDisplay:10.37,2013-02-18 04:50:00,
2013-02-17 22:55:00,26.8,14.0,30.07,SE,135,4.6,4.6,58,0.00,SCT,,0.00,WeatherDisplay:10.37,2013-02-18 04:55:00,
2013-02-17 23:00:00,26.8,14.4,30.07,SSE,158,3.5,3.5,59,0.00,SCT,,0.00,WeatherDisplay:10.37,2013-02-18 05:00:00,
2013-02-17 23:05:00,26.8,14.4,30.06,ESE,112,9.2,9.2,59,0.00,SCT,,0.00,WeatherDisplay:10.37,2013-02-18 05:05:00,
2013-02-17 23:10:00,26.8,14.4,30.06,SSE,158,4.7,4.7,59,0.00,SCT,,0.00,WeatherDisplay:10.37,2013-02-18 05:10:00,
2013-02-17 23:15:00,26.8,14.4,30.06,SSE,158,5.8,5.8,59,0.00,SCT,,0.00,WeatherDisplay:10.37,2013-02-18 05:15:00,
2013-02-17 23:20:00,26.8,14.4,30.06,SE,135,8.4,8.4,59,0.00,SCT,,0.00,WeatherDisplay:10.37,2013-02-18 05:20:00,
2013-02-17 23:25:00,26.8,14.7,30.05,SSE,158,2.3,4.3,60,0.00,SCT,,0.00,WeatherDisplay:10.37,2013-02-18 05:25:00,
2013-02-17 23:30:00,27.1,15.1,30.05,SSE,158,8.1,8.1,60,0.00,SCT,,0.00,WeatherDisplay:10.37,2013-02-18 05:30:00,
2013-02-17 23:35:00,27.0,14.9,30.05,South,180,2.3,3.5,60,0.00,SCT,,0.00,WeatherDisplay:10.37,2013-02-18 05:35:00,
2013-02-17 23:40:00,27.1,15.1,30.05,NE,45,4.6,4.6,60,0.00,SCT,,0.00,WeatherDisplay:10.37,2013-02-18 05:40:00,
2013-02-17 23:45:00,27.5,15.4,30.05,SSE,158,8.1,8.1,60,0.00,SCT,,0.00,WeatherDisplay:10.37,2013-02-18 05:45:00,
2013-02-17 23:50:00,27.3,15.2,30.05,SE,135,5.8,5.8,60,0.00,SCT,,0.00,WeatherDisplay:10.37,2013-02-18 05:50:00,
2013-02-17 23:55:00,27.5,15.4,30.05,SE,135,1.2,3.6,60,0.00,SCT,,0.00,WeatherDisplay:10.37,2013-02-18 05:55:00,